STARLINK-11731 [DTC]

Last updated on Thu Jul 03 2025 00:02:06 GMT+0000 (Coordinated Universal Time)

1 64371U 25127B 25183.39252471 .00183666 00000+0 10326-2 0 9993 2 64371 43.0003 156.2549 0001599 258.7769 101.2921 15.77922900 4106
UTC large
Height (km)
Speed (km/s)
/
Latitude / Longitude
Inclination (degrees)
Orbital Period (minutes)
Azimuth
Elevation
Range (km)
Doppler Factor

Next 0 passes for location: London (51.5072 / 0.1276)

Sorry there are no passes over London.